PST,Max TemperatureF,Mean TemperatureF,Min TemperatureF,Max Dew PointF,MeanDew PointF,Min DewpointF,Max Humidity, Mean Humidity, Min Humidity, Max Sea Level PressureIn, Mean Sea Level PressureIn, Min Sea Level PressureIn, Max VisibilityMiles, Mean VisibilityMiles, Min VisibilityMiles, Max Wind SpeedMPH, Mean Wind SpeedMPH, Max Gust SpeedMPH,PrecipitationIn, CloudCover, Events, WindDirDegrees
2012-12-1,53,49,45,49,47,45,100,86,71,29.81,29.59,29.33,10,7,2,13,2,21,1.08,8,Rain,205
2012-12-2,53,49,44,46,42,40,100,80,59,30.05,29.71,29.30,10,8,2,14,4,15,0.55,7,Rain,171
2012-12-3,57,50,43,48,41,37,92,72,51,30.12,30.01,29.80,10,10,4,15,3,20,0.27,5,Rain,172
2012-12-4,56,53,50,56,54,46,100,89,77,30.02,29.89,29.79,10,5,2,15,3,23,0.75,8,Rain,169
2012-12-5,52,47,41,49,44,39,93,82,71,30.27,30.19,30.04,10,10,5,10,3,13,0.06,7,Rain,3
2012-12-6,46,42,38,40,38,37,100,88,76,30.33,30.29,30.26,10,8,1,7,1,8,0.00,7,,147
2012-12-7,49,43,37,42,38,34,92,79,66,30.30,30.26,30.23,10,10,5,8,2,10,0.01,7,Rain,136
2012-12-8,46,42,37,43,40,36,100,88,76,30.40,30.30,30.25,10,5,0,8,0,9,0.01,6,Fog-Rain,299
2012-12-9,52,45,38,42,39,37,100,82,63,30.45,30.41,30.38,10,10,5,6,1,7,T,8,,143
2012-12-10,51,48,44,45,44,42,92,86,80,30.45,30.37,30.19,10,10,6,5,0,6,0.00,8,,315
2012-12-11,48,44,39,44,41,37,93,85,76,30.14,29.89,29.70,10,8,2,8,2,10,0.26,7,Rain,159
2012-12-12,49,44,38,39,38,36,100,83,65,30.01,29.90,29.79,10,10,5,8,2,10,T,7,Rain,167
2012-12-13,45,41,36,39,36,32,93,79,65,30.06,29.99,29.85,10,10,7,8,2,10,0.00,6,,9
2012-12-14,45,39,33,38,35,33,100,88,76,30.03,29.96,29.86,10,7,0,6,0,9,0.02,7,Fog-Rain,201
2012-12-15,45,38,31,41,36,30,100,88,76,29.99,29.88,29.75,10,6,0,10,2,15,0.28,7,Fog-Rain,215
2012-12-16,53,47,40,52,41,39,100,84,68,29.94,29.71,29.41,10,8,2,29,6,44,0.42,8,Rain,181
2012-12-17,50,42,34,40,35,33,100,81,62,30.08,29.97,29.60,10,9,2,23,5,38,0.51,7,Rain,175
2012-12-18,41,36,31,36,34,31,100,87,73,30.16,30.11,30.06,10,8,1,9,3,12,0.06,6,Snow,155
2012-12-19,48,40,31,38,34,30,100,78,56,30.14,29.94,29.73,10,10,10,20,9,30,0.00,6,Rain,167
2012-12-20,50,43,36,38,33,29,100,78,56,29.86,29.79,29.62,10,6,2,22,4,32,1.44,8,Rain,185
2012-12-21,44,40,36,41,35,31,96,83,70,29.81,29.75,29.61,10,6,0,7,1,9,0.35,7,Fog-Rain,274
2012-12-22,44,40,36,40,38,36,100,91,82,29.86,29.73,29.58,10,8,2,14,2,20,0.67,7,Rain,174
2012-12-23,43,39,34,40,37,33,100,95,89,30.03,29.78,29.60,10,5,0,7,1,10,0.65,8,Fog-Rain-Snow,162
2012-12-24,49,42,35,38,36,35,100,81,61,30.25,30.15,30.03,10,10,5,10,2,13,0.01,5,Rain,161
2012-12-25,48,44,39,42,39,37,96,86,76,29.98,29.78,29.70,10,9,5,8,2,20,0.24,8,Rain,174
2012-12-26,46,43,40,43,40,39,93,88,83,30.11,29.95,29.74,10,10,5,7,2,9,0.15,8,Rain,164
2012-12-27,45,41,36,40,38,35,100,88,76,30.23,30.18,30.10,10,8,0,7,1,8,0.10,7,Fog-Rain,182
2012-12-28,41,38,34,39,36,33,100,93,85,30.18,30.13,30.10,10,9,5,5,0,6,0.02,6,Rain,240
2012-12-29,41,38,34,38,36,34,100,90,79,30.21,30.18,30.14,10,8,4,6,1,29,0.02,7,Rain,342
2012-12-30,42,36,30,36,34,30,100,85,70,30.30,30.24,30.18,10,9,5,7,1,8,0.00,7,,359
2012-12-31,43,38,33,38,35,32,100,85,70,30.36,30.31,30.26,10,9,2,7,1,10,0.02,7,Rain,30